• Processing (Info)

  • MPEC 2009-A56 : 2005 WC1

    The following Minor Planet Electronic Circular may be linked-to from your own Web pages, but must not otherwise be redistributed electronically.

    A form allowing access to any MPEC is at the bottom of this page.


    Read MPEC 2009-A55 Read MPEC 2009-A57


    M.P.E.C. 2009-A56                                Issued 2009 Jan. 10, 05:58 UT
    
         The Minor Planet Electronic Circulars contain information on unusual
             minor planets and routine data on comets.  They are published
       on behalf of Commission 20 of the International Astronomical Union by the
              Minor Planet Center, Smithsonian Astrophysical Observatory,
                              Cambridge, MA 02138, U.S.A.
    
                 Prepared using the Tamkin Foundation Computer Network
    
                                  MPC@CFA.HARVARD.EDU
              URL http://www.cfa.harvard.edu/iau/mpc.html  ISSN 1523-6714
    
                                       2005 WC1
    
                               Revision to MPEC 2005-W36
    
    Additional Observations:
         K05W01C 2C2008 10 21.33160021 50 02.177+21 47 21.18         23.3 R EA056568
         K05W01C 2C2008 10 22.35490321 49 46.267+21 29 53.06         23.2 R EA056568
    
    Observer details:
    568 Mauna Kea.  Observers M. Micheli, G. T. Elliott, D. J. Tholen.  Measurers
        M. Micheli, D. J. Tholen.  2.24-m University of Hawaii reflector.
    
    First and last observations above in comparison with prediction:
    Residuals in seconds of arc, reference and Delta-T
    081021 568  1.8+  1.6+    081022 568  1.7+  1.5+    MPO 97976   -0.0021 day
    
    Orbital elements:
    2005 WC1                                            PHA, Earth MOID = 0.0148 AU
    Epoch 2008 Nov. 30.0 TT = JDT 2454800.5                 MPC
    M 253.52003              (2000.0)            P               Q
    n   0.59462598     Peri.  256.60145     -0.89115491     -0.29974501
    a   1.4005764      Node   265.11908     +0.41546393     -0.84076652
    e   0.4865966      Incl.   19.98787     -0.18229822     -0.45084874
    P   1.66           H   20.7           G   0.15           U   2
    Residuals in seconds of arc
    051121 704  1.5-  0.4+    051207 H45 (0.3-  1.7+)   051211 H45  0.1-  0.2-
    051121 704  1.2-  0.3+    051207 H45  0.1-  0.4+    051211 H45 (1.7+  0.3-)
    051121 704  0.0   0.1+    051207 H45  0.3+  0.8+    051211 H45  0.5+  0.1-
    051122 651  0.3+  0.6+    051207 H45  0.2+  0.5+    051211 300  0.5+  0.0
    051122 651  0.3-  0.7+    051207 H45  0.4+  0.7+    051211 300  0.2+  0.0
    051122 651  0.3+  0.2+    051209 H45  1.2+  1.1+    051211 300  0.2+  0.2+
    051122 734  0.8-  0.1-    051209 H45  1.0+  0.9+    051211 300  0.5+  0.2-
    051122 734  0.1-  0.2-    051209 H45  0.7+  0.4+    051211 300  0.1+  0.3+
    051122 734  0.3-  0.7-    051209 H45  0.0   1.1-    051211 300  0.6+  0.5-
    051122 682  0.5+  0.2+    051209 H45  0.7+  1.2+    051212 G77  0.8+  1.3-
    051122 704  0.8-  1.0-    051210 A74  0.7-  0.1-    051212 G77 (0.2+  2.1-)
    051122 704  0.4+  0.3-    051210 A74  0.6-  0.2-    051212 G77  0.5-  1.5-
    051122 682  0.7+  0.5+    051210 A74  0.5-  0.2-    051212 G77  0.1-  1.2-
    051122 704  0.2+  0.1-    051210 A74  0.2-  0.1+    051212 G77 (0.4+  1.7-)
    051122 682  0.4+  0.4+    051210 A74  0.3-  0.1-    051212 H45  0.1+  0.4+
    051122 704  0.6+  0.8+    051210 A74  0.4-  0.1+    051213 918  0.5+  0.1-
    051122 704  0.2+  0.8-    051210 A74  0.5-  0.1-    051213 918  0.3+  0.5-
    051122 673  0.2+  0.3-    051210 A74  0.3-  0.2-    051213 918  0.2-  0.3+
    051122 673  0.1+  0.2-    051210 A74  0.6-  0.1+    051213 918  0.6+  0.2-
    051122 673  0.2+  0.2-    051210 A74  0.3-  0.0     051213 918  0.2+  0.2+
    051122 673  0.2+  0.3-    051210 A74  0.5-  0.1-    051213 918  0.1+  0.3-
    051123 682  0.4+  0.9+    051210 A74  0.6-  0.0     051213 918  0.4-  1.0+
    051123 682 (1.9+  0.2+)   051210 A74  0.3-  0.1-    051213 918  0.1-  0.1-
    051123 682  0.8+  0.8+    051210 A74  0.3-  0.3+    051213 918  0.5-  0.7+
    051123 F65  0.0   0.0     051210 A74  0.1-  0.1-    051213 918  0.3-  0.1+
    051123 F65  0.0   0.0     051210 A74  0.5-  0.1+    051213 918  0.4-  0.4+
    051123 F65  0.1-  0.0     051210 A74  0.2-  0.0     051213 918  0.4+  0.8-
    051125 682  0.5+  1.0+    051210 A74  0.3-  0.0     051213 918  0.4+  1.0-
    051125 682  0.1+  0.4+    051210 A74  0.2-  0.1+    051213 918  0.5+  0.6-
    051125 682  0.6+  0.6+    051210 A74  0.0   0.1-    051213 918  0.4-  0.9-
    051126 G88  0.4-  0.0     051210 A74  0.2-  0.0     051213 918  0.6-  0.2-
    051126 G88  0.3-  0.1+    051210 G77  1.4-  1.4-    051213 918  0.3+  1.2+
    051126 G88  0.3-  0.0     051210 G77  0.4-  1.2-    051213 918  0.6+  0.4-
    051127 G88  0.7-  0.2+    051210 G77  0.6-  0.6-    051213 918  0.7+  0.4-
    051127 G88  0.3+  0.1-    051210 G77  1.1-  1.2-    051213 918  0.3+  0.1-
    051127 G88  0.5-  0.3+    051210 G77  0.6-  1.3-    051213 918  0.2+  0.2-
    051128 G77  0.1+  0.5-    051210 J87  0.1+  0.2-    051213 918  0.3-  0.0
    051128 G77  0.3-  0.3-    051210 J87  0.4+  0.2+    051213 918  0.2+  0.2+
    051128 G77  0.1+  0.5-    051210 J87  0.3+  0.0     051213 918  0.4+  0.4+
    051128 G77  0.1-  0.0     051211 A74  0.2-  0.0     051213 918  0.5-  0.3+
    051128 G77  1.0+  0.8-    051211 A74  0.4-  0.2+    051213 918  0.3+  0.6-
    051201 A17  0.4-  0.0     051211 A74  0.0   0.1+    051213 918  0.7+  0.8-
    051201 A17  0.2+  0.4-    051211 A74  0.2-  0.2+    051213 918  0.3+  0.7+
    051201 A17  0.4-  0.2-    051211 A74  0.0   0.0     051213 918  0.0   0.4-
    051204 G88  0.5-  0.6+    051211 A74  0.1-  0.1+    051213 918  0.0   0.1-
    051204 G88  0.3-  0.7+    051211 A74  0.1-  0.2+    051213 918  0.3-  0.5+
    051204 G88  0.3-  0.2+    051211 A74  0.3-  0.0     051213 918  0.3+  0.4-
    051205 J95  0.1-  0.1-    051211 A74  0.2-  0.0     051213 918  0.3-  0.4+
    051205 J95  0.1-  0.1-    051211 A74  0.1-  0.1+    051213 918  0.1-  0.5+
    051205 J95  0.1-  0.0     051211 A74  0.3-  0.1+    051213 G77 (0.8+  2.0-)
    051206 G77  0.6+  0.4-    051211 A74  0.3-  0.2+    051213 918  0.5-  0.9+
    051206 G77  0.2+  0.4-    051211 A74  0.2-  0.1-    051213 918  0.1-  0.1+
    051206 G77  0.6+  0.1-    051211 A74  0.2-  0.1+    051213 918  0.2+  0.2-
    051206 G77  0.6+  0.3-    051211 A74  0.1-  0.1-    051213 G77  0.6-  1.1-
    051206 G77  0.9+  0.4-    051211 A74  0.2-  0.1+    051213 918  0.3-  0.4+
    051206 H45  0.4+  0.7+    051211 A74  0.3-  0.2+    051213 918  0.4-  0.7+
    051206 H45  0.1-  0.9+    051211 A74  0.1-  0.1+    051213 918  0.3-  0.7+
    051206 H45  0.5+  1.0+    051211 A74  0.2-  0.2+    051213 918  0.2-  0.5+
    051206 H45  0.7+  1.0+    051211 A74  0.3-  0.3+    051213 918  0.2-  0.4+
    051206 H45  0.3+  0.3+    051211 A74  0.0   0.2+    051213 G77 (0.4-  2.1-)
    051207 G77  0.8+  0.2-    051211 A74  0.2-  0.2+    051213 G77 (1.7+  4.3-)
    051207 G77  0.1+  0.6-    051211 A74  0.3-  0.2+    051213 G77 (1.2+  2.3-)
    051207 G77  0.5+  0.5-    051211 H45  1.5+  0.7+    081021 568  0.0   0.0
    051207 G77  0.7+  0.5-    051211 H45  0.4+  0.5+    081022 568  0.0   0.0
    051207 G77  0.3+  0.1-    051211 H45  0.2+  0.4+
    
    Ephemeris:
    2005 WC1                 a,e,i = 1.40, 0.49, 20                  q = 0.7191
    Date    TT    R. A. (2000) Decl.     Delta      r     Elong.  Phase     V
    2009 01 09    23 12.18   +11 48.9    1.751    1.623    66.0    33.6    24.4
    2009 01 19    23 31.98   +12 11.7    1.791    1.563    60.6    33.2    24.3
    2009 01 29    23 53.31   +12 48.2    1.819    1.500    55.5    32.8    24.3
    2009 02 08    00 16.19   +13 35.1    1.836    1.433    50.8    32.2    24.2
    2009 02 18    00 40.68   +14 29.0    1.839    1.362    46.4    31.7    24.0
    
    Gareth V. Williams           (C) Copyright 2009 MPC           M.P.E.C. 2009-A56
    

    Read MPEC 2009-A55 Read MPEC 2009-A57


    MPEC number:

    Enter an MPEC number in one of the following forms:

    • 1997-B01 (the full form)
    • J97B01 (the packed version of the full form)
    • B01 (the abbreviated form)